Regional Weather Roundup
Issued by NWS

Home | Current Version | Previous Version | Graphics & Text | Print | Product List | Glossary On
Versions: 1 2 3 4 5 6 7 8 9 10 11 12 13 14 15 16 17 18 19 20 21 22 23 24 25 26 27 28 29 30 31 32 33 34 35 36 37 38 39 40 41 42 43 44 45 46 47 48 49 50
000
ASUS45 KCYS 290710
RWRWY

WYOMING REGIONAL WEATHER ROUNDUP
NATIONAL WEATHER SERVICE CHEYENNE WY
100 AM MDT WED MAR 29 2017

NOTE:  "FAIR" INDICATES FEW OR NO CLOUDS BELOW 12,000 FEET
WITH NO SIGNIFICANT WEATHER AND/OR OBSTRUCTIONS TO VISIBILITY.

WYZ001-290800-
YELLOWSTONE NATIONAL PARK

CITY           SKY/WX    TMP DP  RH WIND       PRES   REMARKS
LK YELLOWSTONE   N/A     19  15  84 CALM      30.23R
W YELLOWSTONE  NOT AVBL

$$
WYZ002>013-054>058-071-098>099-290800-
NORTHERN WYOMING

CITY           SKY/WX    TMP DP  RH WIND       PRES   REMARKS
JACKSON        FAIR      25  21  86 NE5       30.21S WCI  19
CODY           FAIR      37  29  72 VRB6      30.13F WCI  32
GREYBULL       FAIR      38  34  85 SE3       30.12S
WORLAND        FAIR      35  33  92 SE8       30.11F WCI  29
SHERIDAN       FAIR      32  29  88 CALM      30.11F
BUFFALO        FAIR      35  28  75 SW3       30.10F
GILLETTE       FAIR      35  33  92 SW5       30.11F WCI  31
HULETT         FAIR      41  37  87 SW5       30.12S
NEWCASTLE      CLOUDY    41  39  93 CALM      30.13S

$$
WYZ014>020-022>026-101>103-290800-
CENTRAL WYOMING

CITY           SKY/WX    TMP DP  RH WIND       PRES   REMARKS
BIG PINEY      FAIR      26  21  81 NW3       30.18F
PINEDALE       FAIR      27  21  80 NW5       30.18F WCI  21
DUBOIS         FAIR      30  19  64 W9        30.16R WCI  22
LANDER         FAIR      33  29  85 NE6       30.12F WCI  28
RIVERTON       FAIR      34  29  82 CALM      30.13F
CASPER         FAIR      31  29  92 SW3       30.14F
DOUGLAS        CLOUDY    39  37  92 NW7       30.14R WCI  34

$$
WYZ021-027>030-104>119-290800-
SOUTHERN WYOMING

CITY           SKY/WX    TMP DP  RH WIND       PRES   REMARKS
EVANSTON       FAIR      29  21  72 S5        30.22S WCI  24
KEMMERER         N/A     28  21  74 NW9       30.20S WCI  20
FORT BRIDGER   FAIR      31  25  77 W13       30.23S WCI  21
ROCK SPRINGS   FAIR      32  28  85 SW8       30.17S WCI  25
DIXON            N/A     33  29  86 N9        30.16S WCI  25
RAWLINS        MOCLDY    33  29  85 N3        30.15S
SARATOGA       CLOUDY    32  32 100 N7        30.15R WCI  26
LARAMIE        CLOUDY    32  32 100 NW15      30.08F WCI  22
CHEYENNE       CLOUDY    34  32  92 N12       30.06F WCI  25
TORRINGTON     CLOUDY    39  37  92 CALM      30.10S
PINE BLUFFS    CLOUDY    34  34 100 N6        30.08R WCI  29

$$



USA.gov is the U.S. government's official web portal to all federal, state and local government web resources and services.